Location: Kumla
(59.1265°N, 15.1401°E)
Time: 23:29:08
(UTC+01:00)

Vanguard 1 - Pass Details

Date: 10 December 2023
Orbit: 653 x 3825 km, 34.3° (Epoch: 04 March)

Event Time Altitude Azimuth Distance (km) Brightness Sun altitude
Rises 19:33:30 0° 247° (WSW) 6,004 14.9 -32.4°
Reaches altitude 10° 19:37:40 10° 238° (WSW) 5,411 14.3 -33.0°
Maximum altitude 19:51:32 30° 185° (S) 4,925 13.4 -34.7°
Enters shadow 20:00:12 24° 155° (SSE) 5,693 13.5 -35.8°
